SCP
0 0 0 0 0 0 0 0 0 0 0 0 0 0 0 0 0 0 0 0 0 0 0 0 0 0 0 0 0 0 0 0 0 0 0 0 0 0
0 0 0 0 0 0 0 0 0 0 0 0 0 0 0 0 0 0 0 0 0 0 0 0 0 0 0 0 0 0 0 0 0 0 0 0 0 0
0 0 0 0 0 0 0 0 0 0 0 0 0 0 0 0 0 0 0 0 0 0 0 0 0 0 0 0 0 0 0 0 0 0 0 0 0 0
0 0 0 0 0 0 0 0 0 0 0 0 0 0 0 0 0 0 0 0 0 0 0 0 0 0 0 0 0 0 0 0 0 0 0 0 0 0
0 0 0 0 0 0 0 0 0 0 0 0 0 0 0 0 0 0 0 0 0 0 0 0 0 0 0 0 0 0 0 0 0 0 0 0 0 0
0 0 0 0 0 0 0 0 0 0 0 0 0 0 0 0 0 0 0 0 0 0 0 0 0 0 0 0 0 0 0 0 0 0 0 0 0 0
0 0 0 0 0 0 0 0 0 0 0 0 0 0 0 0 0 0 0 0 0 0 0 0 0 0 0 0 0 0 0 0 0 0 0 0 0 0
0 0 0 0 0 0 0 0 0 0 0 0 0 0 0 0 0 0 0 0 0 0 0 0 0 0 0 0 0 0 0 0 0 0 0 0 0 0
0 0 0 0 0 0 0 0 0 0 0 0 0 0 0 0 0 0 0 0 0 0 0 0 0 0 0 0 0 0 0 0 0 0 0 0 0 0
0 0 0 0 0 0 0 0 0 0 0 0 0 0 0 0 0 0 0 0 0 0 0 0 0 0 0 0 0 0 0 0 0 0 0 0 0 0
0 0 0 0 0 0 0 0 0 0 0 0 0 0 0 0 0 0 0 0 0 0 0 0 0 0 0 0 0 0 0 0 0 0 0 0 0 0
0 0 0 0 0 0 0 0 0 0 0 0 0 0 0 0 0 0 0 0 0 0 0 0 0 0 0 0 0 0 0 0 0 0 0 0 0 0
0 0 0 0 0 0 0 0 0 0 0 0 0 0 0 0 0 0 0 0 0 0 0 0 0 0 0 0 0 0 0 0 0 0 0 0 0 0
0 0 0 0 0 0 0 0 0 0 0 0 0 0 0 0 0 0 0 0 0 0 0 0 0 0 0 0 0 0 0 0 0 0 0 0 0 0
0 0 0 0 0 0 0 0 0 0 0 0 0 0 0 0 0 0 0 0 0 0 0 0 0 0 0 0 0 0 0 0 0 0 0 0 0 0
0 0 0 0 0 0 0 0 0 0 0 0 0 0 0 0 0 0 0 0 0 0 0 0 0 0 0 0 0 0 0 0 0 0 0 0 0 0
0 0 0 0 0 0 0 0 0 0 0 0 0 0 0 0 0 0 0 0 0 0 0 0 0 0 0 0 0 0 0 0 0 0 0 0 0 0
0 0 0 0 0 0 0 0 0 0 0 0 0 0 0 0 0 0 0 0 0 0 0 0 0 0 0 0 0 0 0 0 0 0 0 0 0 0
0 0 0 0 0 0 0 0 0 0 0 0 0 0 0 0 0 0 0 0 0 0 0 0 0 0 0 0 0 0 0 0 0 0 0 0 0 0
0 0 0 0 0 0 0 0 0 0 0 0 0 0 0 0 0 0 0 0 0 0 0 0 0 0 0 0 0 0 0 0 0 0 0 0 0 0
0 0 0 0 0 0 0 0 0 0 0 0 0 0 0 0 0 0 0 0 0 0 0 0 0 0 0 0 0 0 0 0 0 0 0 0 0 0
0 0 0 0 0 0 0 0 0 0 0 0 0 0 0 0 0 0 0 0 0 0 0 0 0 0 0 0 0 0 0 0 0 0 0 0 0 0
0 0 0 0 0 0 0 0 0 0 0 0 0 0 0 0 0 0 0 0 0 0 0 0 0 0 0 0 0 0 0 0 0 0 0 0 0 0
Wind_Speed
2 2 1 0 1 1 2 4 4 2 1 2 1 1 0 1 1 1 2 4 6 6 7 7 8 8 8 9 9 9 9 9 9 9 9 8 8 8
1 2 1 1 1 1 2 2 3 4 2 1 1 1 0 1 2 2 2 4 5 5 6 7 7 8 8 9 10 10 9 9 9 9 9 9 9 8
1 2 2 1 2 1 2 2 2 3 3 1 1 1 2 1 2 1 2 2 2 5 5 6 6 7 7 8 8 9 9 9 9 9 8 8 8 8
1 2 1 2 2 1 2 2 2 2 3 2 0 1 1 1 1 2 1 1 1 3 4 5 5 6 6 7 7 8 8 8 8 8 8 8 8 8
2 2 2 3 2 1 2 2 2 2 2 3 1 0 1 1 2 2 2 2 1 2 3 3 4 4 5 5 6 6 7 7 7 7 8 8 8 7
2 2 2 3 3 2 2 2 3 3 3 3 2 1 0 1 1 1 1 1 1 2 2 3 3 3 3 3 4 5 5 5 6 6 6 7 8 8
2 2 2 3 4 3 3 3 3 3 3 2 2 1 0 0 1 1 1 0 1 1 1 1 1 1 1 1 2 3 4 4 4 5 5 5 6 7
2 1 2 2 4 5 5 5 6 5 4 3 2 2 2 2 2 1 1 1 1 1 1 1 1 1 1 1 2 2 3 3 4 4 4 5 5 6
3 2 2 2 3 2 3 4 4 6 7 6 4 4 3 3 3 2 2 3 2 1 1 1 1 1 1 1 2 2 2 3 3 3 4 5 5 5
3 3 3 2 3 3 3 2 1 1 3 3 4 4 3 3 4 4 4 2 0 0 2 1 1 1 1 1 2 2 2 2 3 3 3 4 5 5
2 3 4 3 6 6 4 3 1 1 1 3 3 3 3 3 4 3 2 2 1 1 1 1 1 1 1 2 2 3 3 3 3 3 3 4 4 4
1 2 4 5 6 7 4 4 4 3 2 1 1 0 0 0 2 3 4 3 2 1 1 2 1 1 1 2 2 2 2 3 3 3 4 4 4 2
2 2 2 5 5 6 6 4 6 4 2 2 1 0 0 0 0 1 2 3 3 2 2 3 2 1 1 1 2 1 1 1 1 2 3 4 4 2
3 2 2 4 4 5 4 4 6 4 2 2 1 1 1 1 1 1 1 1 2 3 3 3 2 3 2 1 2 2 2 1 1 1 2 3 3 4
3 4 3 3 3 2 4 5 4 2 2 2 2 2 2 2 1 0 1 0 1 1 0 1 2 3 2 3 2 1 1 2 1 1 2 2 2 2
2 3 3 2 1 1 1 2 2 2 3 3 3 2 1 1 0 1 0 0 0 2 2 1 1 3 2 2 2 2 2 2 2 2 1 2 2 2
3 2 1 1 1 0 0 1 1 1 2 2 2 1 1 1 1 1 1 1 1 1 1 1 1 0 1 2 1 2 2 2 2 2 1 2 3 3
5 3 3 2 3 2 2 2 2 2 2 2 2 2 2 2 2 1 1 1 2 2 1 1 1 1 2 2 2 3 2 2 2 2 1 2 4 4
4 4 4 4 3 3 3 3 3 2 2 2 3 2 2 2 2 2 2 1 2 2 2 1 1 1 1 3 3 1 2 2 1 1 2 2 4 4
4 4 4 4 3 3 3 3 2 2 2 2 3 3 3 3 2 2 2 3 2 2 1 1 2 2 3 3 2 2 2 1 1 2 2 2 3 4
4 4 4 4 3 3 3 3 3 3 3 3 3 3 3 3 3 3 3 3 3 2 3 3 3 2 1 1 0 2 2 3 2 2 2 2 3 3
4 4 4 4 4 3 3 3 3 3 3 3 3 3 3 3 4 4 4 3 3 3 3 2 1 1 1 2 2 3 3 3 3 4 3 1 1 2
5 4 4 4 4 3 3 4 4 4 4 4 4 3 3 3 3 3 4 3 3 3 2 1 1 1 1 2 2 2 3 3 2 2 3 5 5 6
Wind_Direction
144 137 123 139 133 148 145 147 144 146 279 291 315 319 300 94 77 87 80 81 77 71 66 62 61 58 55 50 47 46 43 41 40 38 37 35 32 30
125 112 91 72 84 111 137 138 140 146 167 257 262 285 110 108 106 87 80 86 78 76 73 71 67 62 60 57 54 49 45 43 44 42 38 35 32 27
100 109 102 89 82 74 94 104 111 123 140 243 340 8 61 60 47 61 67 52 60 78 78 75 71 69 65 61 57 53 49 44 41 38 34 31 28 25
134 117 113 99 83 83 97 102 109 121 137 148 21 24 43 50 75 75 63 71 71 79 81 80 78 78 72 66 61 56 51 44 40 36 32 29 25 20
142 139 146 122 109 100 105 110 112 105 106 128 134 24 25 37 59 48 47 29 57 69 75 76 81 79 80 71 63 57 51 46 41 36 32 28 23 18
139 148 152 150 159 150 134 138 128 112 105 107 104 60 27 4 77 83 35 25 33 35 43 58 70 67 63 66 61 53 45 41 36 32 32 27 22 18
131 145 150 147 150 149 145 152 142 131 122 116 118 92 42 81 209 210 175 154 13 23 43 27 32 18 360 20 46 39 33 32 29 28 29 25 19 16
149 156 143 134 128 127 130 143 151 152 158 152 153 163 211 211 201 168 152 123 299 309 109 340 45 332 302 302 9 23 20 20 21 22 27 27 22 14
168 166 156 146 139 121 113 114 131 151 162 164 168 194 201 202 170 161 171 171 205 230 122 316 334 303 292 340 1 7 13 13 13 17 26 24 22 17
174 173 169 177 166 153 139 124 134 178 182 176 185 198 192 185 178 183 186 163 84 28 121 181 282 280 311 307 340 353 351 356 0 6 16 16 16 15
193 181 176 185 181 166 150 156 174 229 143 153 158 160 162 164 151 121 121 132 223 260 174 156 228 273 306 295 310 334 340 342 345 352 359 4 9 4
205 202 189 186 187 174 170 171 183 214 177 137 135 63 337 106 143 163 168 166 177 240 222 157 180 128 307 297 310 319 324 330 345 355 349 348 353 349
195 223 212 187 185 178 175 185 189 185 171 162 159 122 39 4 291 196 183 176 178 218 205 157 164 161 184 271 302 302 306 301 307 328 332 334 336 338
201 214 199 181 186 184 183 180 175 163 147 143 147 191 224 250 249 219 202 197 190 205 198 165 168 177 172 217 263 293 303 290 276 299 302 328 333 329
194 185 183 180 178 181 171 169 165 154 152 165 199 226 231 230 206 93 26 59 35 357 34 185 175 177 175 197 224 233 267 282 263 280 288 294 290 302
185 165 157 154 159 154 157 176 179 175 178 196 209 221 195 139 183 178 187 181 55 328 340 346 187 175 200 219 208 230 225 244 273 273 277 286 290 284
154 129 124 121 157 214 236 230 197 183 204 212 202 202 198 190 216 185 151 139 167 240 312 350 17 73 199 199 218 235 242 258 260 263 271 286 281 275
145 160 183 195 204 215 219 231 224 215 215 206 202 205 206 209 215 197 162 175 210 238 244 228 100 53 22 333 236 230 251 261 264 259 249 270 286 286
164 189 201 207 211 216 222 222 227 222 203 196 203 207 207 207 203 209 206 210 228 240 248 216 174 156 234 288 297 259 236 265 276 279 267 255 272 286
197 205 209 208 206 209 219 226 226 209 197 203 207 209 206 203 210 218 217 217 225 232 245 233 217 213 219 236 252 283 279 245 249 272 283 287 283 298
206 210 210 207 207 209 214 216 216 216 211 209 216 218 213 206 215 219 220 223 219 222 234 245 247 247 212 103 306 295 296 290 285 270 280 299 308 313
208 208 210 209 207 208 211 210 213 218 219 220 223 222 220 214 217 218 217 217 221 225 239 254 240 143 148 197 240 268 293 311 314 320 308 282 259 278
211 210 208 208 209 209 212 214 215 220 222 225 224 222 218 220 223 219 217 216 218 220 221 225 215 184 208 211 234 264 283 300 316 326 310 313 306 299